Time,TemperatureF,DewpointF,PressureIn,WindDirection,WindDirectionDegrees,WindSpeedMPH,WindSpeedGustMPH,Humidity,HourlyPrecipIn,Conditions,Clouds,dailyrainin,SoftwareType,DateUTC
2013-06-21 00:00:00,63.4,58.8,29.77,WSW,250,2.0,2.0,85,0.00,,,0.00,WeatherCatV1.10B1784,2013-06-21 07:00:00,
2013-06-21 00:05:00,63.4,58.8,29.77,WSW,250,0.0,1.0,85,0.00,,,0.00,WeatherCatV1.10B1784,2013-06-21 07:05:00,
2013-06-21 00:10:00,63.2,58.6,29.77,WSW,250,0.0,1.0,85,0.00,,,0.00,WeatherCatV1.10B1784,2013-06-21 07:10:00,
2013-06-21 00:15:00,63.2,58.6,29.77,WSW,250,1.0,2.0,85,0.00,,,0.00,WeatherCatV1.10B1784,2013-06-21 07:15:00,
2013-06-21 00:20:00,63.2,58.6,29.77,WSW,250,0.0,2.0,85,0.00,,,0.00,WeatherCatV1.10B1784,2013-06-21 07:20:00,
2013-06-21 00:25:00,63.1,58.5,29.77,WSW,250,1.0,2.0,85,0.00,,,0.00,WeatherCatV1.10B1784,2013-06-21 07:25:00,
2013-06-21 00:30:00,62.9,58.6,29.76,WSW,250,1.0,2.0,86,0.00,,,0.00,WeatherCatV1.10B1784,2013-06-21 07:30:00,
2013-06-21 00:35:00,62.7,58.4,29.76,WSW,250,1.0,2.0,86,0.00,,,0.00,WeatherCatV1.10B1784,2013-06-21 07:35:00,
2013-06-21 00:40:00,62.7,58.4,29.76,WSW,250,2.0,2.0,86,0.00,,,0.00,WeatherCatV1.10B1784,2013-06-21 07:40:00,
2013-06-21 00:45:00,62.9,58.6,29.77,WSW,250,2.0,3.0,86,0.00,,,0.00,WeatherCatV1.10B1784,2013-06-21 07:45:00,
2013-06-21 00:50:00,63.1,58.8,29.77,WSW,250,3.0,3.0,86,0.00,,,0.00,WeatherCatV1.10B1784,2013-06-21 07:50:00,
2013-06-21 00:55:00,62.9,58.6,29.77,WSW,250,0.0,2.0,86,0.00,,,0.00,WeatherCatV1.10B1784,2013-06-21 07:55:00,
2013-06-21 01:00:00,62.7,58.4,29.76,WSW,250,1.0,2.0,86,0.00,,,0.00,WeatherCatV1.10B1784,2013-06-21 08:00:00,
2013-06-21 01:05:00,62.7,58.8,29.76,WSW,250,1.0,2.0,87,0.00,,,0.00,WeatherCatV1.10B1784,2013-06-21 08:05:00,
2013-06-21 01:10:00,62.7,58.8,29.76,WSW,250,1.0,2.0,87,0.00,,,0.00,WeatherCatV1.10B1784,2013-06-21 08:10:00,
2013-06-21 01:15:00,62.6,58.7,29.76,WSW,250,1.0,3.0,87,0.00,,,0.00,WeatherCatV1.10B1784,2013-06-21 08:15:00,
2013-06-21 01:20:00,62.6,58.7,29.76,WSW,250,2.0,2.0,87,0.00,,,0.00,WeatherCatV1.10B1784,2013-06-21 08:20:00,
2013-06-21 01:25:00,62.6,58.7,29.76,WSW,250,1.0,2.0,87,0.00,,,0.00,WeatherCatV1.10B1784,2013-06-21 08:25:00,
2013-06-21 01:30:00,62.4,58.5,29.76,WSW,250,2.0,3.0,87,0.00,,,0.00,WeatherCatV1.10B1784,2013-06-21 08:30:00,
2013-06-21 01:35:00,62.6,58.7,29.76,WSW,250,0.0,2.0,87,0.00,,,0.00,WeatherCatV1.10B1784,2013-06-21 08:35:00,
2013-06-21 01:40:00,62.6,58.7,29.76,WSW,250,0.0,2.0,87,0.00,,,0.00,WeatherCatV1.10B1784,2013-06-21 08:40:00,
2013-06-21 01:45:00,62.6,59.0,29.76,WSW,250,1.0,2.0,88,0.00,,,0.00,WeatherCatV1.10B1784,2013-06-21 08:45:00,
2013-06-21 01:50:00,63.1,59.5,29.76,WSW,250,4.0,5.0,88,0.00,,,0.00,WeatherCatV1.10B1784,2013-06-21 08:50:00,
2013-06-21 01:55:00,62.9,59.3,29.76,WSW,250,0.0,3.0,88,0.00,,,0.00,WeatherCatV1.10B1784,2013-06-21 08:55:00,
2013-06-21 02:00:00,62.7,59.1,29.76,WSW,250,0.0,2.0,88,0.00,,,0.00,WeatherCatV1.10B1784,2013-06-21 09:00:00,
2013-06-21 02:05:00,62.4,58.5,29.76,WSW,250,0.0,3.0,87,0.00,,,0.00,WeatherCatV1.10B1784,2013-06-21 09:05:00,
2013-06-21 02:10:00,62.4,58.8,29.76,WSW,250,1.0,3.0,88,0.00,,,0.00,WeatherCatV1.10B1784,2013-06-21 09:10:00,
2013-06-21 02:15:00,62.3,58.7,29.75,WSW,250,1.0,2.0,88,0.00,,,0.00,WeatherCatV1.10B1784,2013-06-21 09:15:00,
2013-06-21 02:20:00,62.3,58.7,29.75,WSW,250,1.0,3.0,88,0.00,,,0.00,WeatherCatV1.10B1784,2013-06-21 09:20:00,
2013-06-21 02:25:00,62.1,58.5,29.75,WSW,250,2.0,2.0,88,0.00,,,0.00,WeatherCatV1.10B1784,2013-06-21 09:25:00,
2013-06-21 02:30:00,62.1,58.5,29.74,WSW,250,2.0,2.0,88,0.00,,,0.00,WeatherCatV1.10B1784,2013-06-21 09:30:00,
2013-06-21 02:35:00,62.1,58.5,29.74,WSW,250,1.0,2.0,88,0.00,,,0.00,WeatherCatV1.10B1784,2013-06-21 09:35:00,
2013-06-21 02:40:00,62.1,58.5,29.74,WSW,250,2.0,2.0,88,0.00,,,0.00,WeatherCatV1.10B1784,2013-06-21 09:40:00,
2013-06-21 02:45:00,62.1,58.5,29.75,WSW,250,2.0,3.0,88,0.00,,,0.00,WeatherCatV1.10B1784,2013-06-21 09:45:00,
2013-06-21 02:50:00,62.0,58.4,29.75,WSW,250,2.0,2.0,88,0.00,,,0.00,WeatherCatV1.10B1784,2013-06-21 09:50:00,
2013-06-21 02:55:00,62.0,58.7,29.75,WSW,250,2.0,3.0,89,0.00,,,0.00,WeatherCatV1.10B1784,2013-06-21 09:55:00,
2013-06-21 03:00:00,61.8,58.5,29.75,WSW,250,0.0,3.0,89,0.00,,,0.00,WeatherCatV1.10B1784,2013-06-21 10:00:00,
2013-06-21 03:05:00,62.0,58.7,29.75,WSW,250,0.0,3.0,89,0.00,,,0.00,WeatherCatV1.10B1784,2013-06-21 10:05:00,
2013-06-21 03:10:00,62.1,58.8,29.75,WSW,250,1.0,5.0,89,0.00,,,0.00,WeatherCatV1.10B1784,2013-06-21 10:10:00,
2013-06-21 03:15:00,62.3,59.3,29.74,SE,126,1.0,5.0,90,0.00,,,0.00,WeatherCatV1.10B1784,2013-06-21 10:15:00,
2013-06-21 03:20:00,62.3,59.3,29.74,SE,124,2.0,4.0,90,0.00,,,0.00,WeatherCatV1.10B1784,2013-06-21 10:20:00,
2013-06-21 03:25:00,62.4,59.4,29.74,ESE,121,1.0,6.0,90,0.00,,,0.00,WeatherCatV1.10B1784,2013-06-21 10:25:00,
2013-06-21 03:30:00,62.4,59.4,29.74,ESE,121,3.0,6.0,90,0.00,,,0.00,WeatherCatV1.10B1784,2013-06-21 10:30:00,
2013-06-21 03:35:00,62.4,59.4,29.74,ESE,118,1.0,6.0,90,0.00,,,0.00,WeatherCatV1.10B1784,2013-06-21 10:35:00,
2013-06-21 03:40:00,62.4,59.7,29.74,ESE,118,1.0,7.0,91,0.00,,,0.00,WeatherCatV1.10B1784,2013-06-21 10:40:00,
2013-06-21 03:45:00,62.4,59.7,29.74,ESE,118,2.0,4.0,91,0.00,,,0.00,WeatherCatV1.10B1784,2013-06-21 10:45:00,
2013-06-21 03:50:00,62.4,59.7,29.74,ESE,118,0.0,5.0,91,0.00,,,0.00,WeatherCatV1.10B1784,2013-06-21 10:50:00,
2013-06-21 03:55:00,62.4,59.7,29.74,ESE,117,0.0,6.0,91,0.00,,,0.00,WeatherCatV1.10B1784,2013-06-21 10:55:00,
2013-06-21 04:00:00,62.3,59.6,29.74,ESE,117,0.0,3.0,91,0.00,,,0.00,WeatherCatV1.10B1784,2013-06-21 11:00:00,
2013-06-21 04:05:00,62.3,59.6,29.74,ESE,117,0.0,4.0,91,0.00,,,0.00,WeatherCatV1.10B1784,2013-06-21 11:05:00,
2013-06-21 04:10:00,62.4,59.7,29.74,ESE,117,1.0,5.0,91,0.00,,,0.00,WeatherCatV1.10B1784,2013-06-21 11:10:00,
2013-06-21 04:15:00,62.3,59.6,29.75,ESE,117,0.0,0.0,91,0.00,,,0.00,WeatherCatV1.10B1784,2013-06-21 11:15:00,
2013-06-21 04:20:00,62.3,59.6,29.75,ESE,117,0.0,1.0,91,0.00,,,0.00,WeatherCatV1.10B1784,2013-06-21 11:20:00,
2013-06-21 04:25:00,62.4,59.7,29.75,ESE,117,0.0,4.0,91,0.00,,,0.00,WeatherCatV1.10B1784,2013-06-21 11:25:00,
2013-06-21 04:30:00,62.4,59.7,29.75,ESE,117,0.0,0.0,91,0.00,,,0.00,WeatherCatV1.10B1784,2013-06-21 11:30:00,
2013-06-21 04:35:00,62.4,59.7,29.75,ESE,117,0.0,1.0,91,0.00,,,0.00,WeatherCatV1.10B1784,2013-06-21 11:35:00,
2013-06-21 04:40:00,62.4,59.7,29.75,ESE,117,0.0,0.0,91,0.00,,,0.00,WeatherCatV1.10B1784,2013-06-21 11:40:00,
2013-06-21 04:45:00,62.6,59.9,29.75,ESE,117,0.0,3.0,91,0.00,,,0.00,WeatherCatV1.10B1784,2013-06-21 11:45:00,
2013-06-21 04:50:00,62.6,59.9,29.75,ESE,117,3.0,4.0,91,0.00,,,0.00,WeatherCatV1.10B1784,2013-06-21 11:50:00,
2013-06-21 04:55:00,62.6,59.9,29.75,ESE,117,0.0,4.0,91,0.00,,,0.00,WeatherCatV1.10B1784,2013-06-21 11:55:00,
2013-06-21 05:00:00,62.6,59.9,29.76,ESE,117,2.0,3.0,91,0.00,,,0.00,WeatherCatV1.10B1784,2013-06-21 12:00:00,
2013-06-21 05:05:00,62.6,59.9,29.76,ESE,117,0.0,1.0,91,0.00,,,0.00,WeatherCatV1.10B1784,2013-06-21 12:05:00,
2013-06-21 05:10:00,62.7,60.3,29.76,ESE,117,2.0,5.0,92,0.00,,,0.00,WeatherCatV1.10B1784,2013-06-21 12:10:00,
2013-06-21 05:15:00,62.6,59.9,29.76,ESE,117,1.0,4.0,91,0.00,,,0.00,WeatherCatV1.10B1784,2013-06-21 12:15:00,
2013-06-21 05:20:00,62.6,59.9,29.76,ESE,117,2.0,4.0,91,0.00,,,0.00,WeatherCatV1.10B1784,2013-06-21 12:20:00,
2013-06-21 05:25:00,62.7,60.0,29.76,ESE,117,1.0,3.0,91,0.00,,,0.00,WeatherCatV1.10B1784,2013-06-21 12:25:00,
2013-06-21 05:30:00,62.7,60.3,29.77,SE,126,2.0,4.0,92,0.00,,,0.00,WeatherCatV1.10B1784,2013-06-21 12:30:00,
2013-06-21 05:35:00,62.7,60.3,29.77,SSW,194,3.0,11.0,92,0.00,,,0.00,WeatherCatV1.10B1784,2013-06-21 12:35:00,
2013-06-21 05:40:00,62.9,60.2,29.77,SSW,199,5.0,9.0,91,0.00,,,0.00,WeatherCatV1.10B1784,2013-06-21 12:40:00,
2013-06-21 05:45:00,62.7,60.0,29.77,South,180,10.0,10.0,91,0.00,,,0.00,WeatherCatV1.10B1784,2013-06-21 12:45:00,
2013-06-21 05:50:00,62.7,60.0,29.77,South,182,4.0,10.0,91,0.00,,,0.00,WeatherCatV1.10B1784,2013-06-21 12:50:00,
2013-06-21 05:55:00,62.9,60.2,29.77,South,182,6.0,7.0,91,0.00,,,0.00,WeatherCatV1.10B1784,2013-06-21 12:55:00,
2013-06-21 06:00:00,62.7,60.0,29.77,South,184,6.0,9.0,91,0.00,,,0.00,WeatherCatV1.10B1784,2013-06-21 13:00:00,
2013-06-21 06:05:00,62.7,60.0,29.77,South,184,0.0,3.0,91,0.00,,,0.00,WeatherCatV1.10B1784,2013-06-21 13:05:00,
2013-06-21 06:10:00,62.6,59.9,29.77,South,184,0.0,2.0,91,0.00,,,0.00,WeatherCatV1.10B1784,2013-06-21 13:10:00,
2013-06-21 06:15:00,62.6,59.9,29.77,South,184,2.0,5.0,91,0.00,,,0.00,WeatherCatV1.10B1784,2013-06-21 13:15:00,
2013-06-21 06:20:00,62.6,59.6,29.77,SSE,147,4.0,6.0,90,0.00,,,0.00,WeatherCatV1.10B1784,2013-06-21 13:20:00,
2013-06-21 06:25:00,62.4,59.4,29.77,SE,144,4.0,5.0,90,0.00,,,0.00,WeatherCatV1.10B1784,2013-06-21 13:25:00,
2013-06-21 06:30:00,62.6,59.6,29.77,SE,141,4.0,4.0,90,0.00,,,0.00,WeatherCatV1.10B1784,2013-06-21 13:30:00,
2013-06-21 06:35:00,62.4,59.4,29.77,SE,134,4.0,4.0,90,0.00,,,0.00,WeatherCatV1.10B1784,2013-06-21 13:35:00,
2013-06-21 06:40:00,62.6,59.6,29.77,SE,133,1.0,3.0,90,0.00,,,0.00,WeatherCatV1.10B1784,2013-06-21 13:40:00,
2013-06-21 06:45:00,62.6,59.6,29.78,ESE,114,6.0,6.0,90,0.00,,,0.00,WeatherCatV1.10B1784,2013-06-21 13:45:00,
2013-06-21 06:50:00,62.6,59.6,29.78,ESE,109,1.0,2.0,90,0.00,,,0.00,WeatherCatV1.10B1784,2013-06-21 13:50:00,
2013-06-21 06:55:00,62.6,59.3,29.78,ESE,109,2.0,4.0,89,0.00,,,0.00,WeatherCatV1.10B1784,2013-06-21 13:55:00,
2013-06-21 07:00:00,62.7,59.7,29.78,ESE,109,1.0,1.0,90,0.00,,,0.00,WeatherCatV1.10B1784,2013-06-21 14:00:00,
2013-06-21 07:05:00,62.6,59.3,29.78,ESE,109,3.0,7.0,89,0.00,,,0.00,WeatherCatV1.10B1784,2013-06-21 14:05:00,
2013-06-21 07:10:00,62.7,59.4,29.78,ESE,109,2.0,4.0,89,0.00,,,0.00,WeatherCatV1.10B1784,2013-06-21 14:10:00,
2013-06-21 07:15:00,62.9,59.6,29.79,ESE,109,1.0,3.0,89,0.00,,,0.00,WeatherCatV1.10B1784,2013-06-21 14:15:00,
2013-06-21 07:20:00,63.1,59.8,29.79,ESE,109,1.0,3.0,89,0.00,,,0.00,WeatherCatV1.10B1784,2013-06-21 14:20:00,
2013-06-21 07:25:00,63.1,59.8,29.79,ESE,109,0.0,0.0,89,0.00,,,0.00,WeatherCatV1.10B1784,2013-06-21 14:25:00,
2013-06-21 07:30:00,63.1,59.8,29.79,ESE,109,0.0,3.0,89,0.00,,,0.00,WeatherCatV1.10B1784,2013-06-21 14:30:00,
2013-06-21 07:35:00,63.2,59.9,29.79,ESE,109,0.0,2.0,89,0.00,,,0.00,WeatherCatV1.10B1784,2013-06-21 14:35:00,
2013-06-21 07:40:00,63.2,59.6,29.79,ESE,110,3.0,6.0,88,0.00,,,0.00,WeatherCatV1.10B1784,2013-06-21 14:40:00,
2013-06-21 07:45:00,63.4,59.8,29.80,ESE,110,0.0,0.0,88,0.00,,,0.00,WeatherCatV1.10B1784,2013-06-21 14:45:00,
2013-06-21 07:50:00,63.2,59.6,29.80,ESE,112,5.0,7.0,88,0.00,,,0.00,WeatherCatV1.10B1784,2013-06-21 14:50:00,
2013-06-21 07:55:00,63.2,59.6,29.80,ESE,115,0.0,7.0,88,0.00,,,0.00,WeatherCatV1.10B1784,2013-06-21 14:55:00,
2013-06-21 08:00:00,63.4,59.8,29.80,ESE,114,3.0,5.0,88,0.00,,,0.00,WeatherCatV1.10B1784,2013-06-21 15:00:00,
2013-06-21 08:05:00,63.4,59.8,29.80,ESE,114,1.0,6.0,88,0.00,,,0.00,WeatherCatV1.10B1784,2013-06-21 15:05:00,
2013-06-21 08:10:00,63.7,60.1,29.80,ESE,114,0.0,1.0,88,0.00,,,0.00,WeatherCatV1.10B1784,2013-06-21 15:10:00,
2013-06-21 08:15:00,64.0,60.4,29.81,ESE,114,0.0,1.0,88,0.00,,,0.00,WeatherCatV1.10B1784,2013-06-21 15:15:00,
2013-06-21 08:20:00,64.5,60.5,29.81,ESE,114,0.0,3.0,87,0.00,,,0.00,WeatherCatV1.10B1784,2013-06-21 15:20:00,
2013-06-21 08:25:00,64.8,61.2,29.81,ESE,114,3.0,4.0,88,0.00,,,0.00,WeatherCatV1.10B1784,2013-06-21 15:25:00,
2013-06-21 08:30:00,65.0,61.0,29.81,ESE,115,1.0,3.0,87,0.00,,,0.00,WeatherCatV1.10B1784,2013-06-21 15:30:00,
2013-06-21 08:35:00,65.0,61.0,29.81,ESE,115,2.0,2.0,87,0.00,,,0.00,WeatherCatV1.10B1784,2013-06-21 15:35:00,
2013-06-21 08:40:00,64.8,60.8,29.81,ESE,115,2.0,2.0,87,0.00,,,0.00,WeatherCatV1.10B1784,2013-06-21 15:40:00,
2013-06-21 08:45:00,64.7,60.4,29.81,ESE,115,0.0,4.0,86,0.00,,,0.00,WeatherCatV1.10B1784,2013-06-21 15:45:00,
2013-06-21 08:50:00,64.7,60.4,29.81,ESE,115,1.0,2.0,86,0.00,,,0.00,WeatherCatV1.10B1784,2013-06-21 15:50:00,
2013-06-21 08:55:00,64.7,60.4,29.81,ESE,115,3.0,4.0,86,0.00,,,0.00,WeatherCatV1.10B1784,2013-06-21 15:55:00,
2013-06-21 09:00:00,64.3,60.0,29.82,SE,132,4.0,6.0,86,0.00,,,0.00,WeatherCatV1.10B1784,2013-06-21 16:00:00,
2013-06-21 09:05:00,64.3,60.0,29.82,SE,134,5.0,5.0,86,0.00,,,0.00,WeatherCatV1.10B1784,2013-06-21 16:05:00,
2013-06-21 09:10:00,64.5,60.2,29.82,SE,140,5.0,6.0,86,0.00,,,0.00,WeatherCatV1.10B1784,2013-06-21 16:10:00,
2013-06-21 09:15:00,64.7,60.4,29.82,SE,141,6.0,7.0,86,0.00,,,0.00,WeatherCatV1.10B1784,2013-06-21 16:15:00,
2013-06-21 09:20:00,64.8,60.5,29.82,SSE,150,5.0,7.0,86,0.00,,,0.00,WeatherCatV1.10B1784,2013-06-21 16:20:00,
2013-06-21 09:25:00,65.0,60.7,29.82,SSE,167,5.0,8.0,86,0.00,,,0.00,WeatherCatV1.10B1784,2013-06-21 16:25:00,
2013-06-21 09:30:00,64.8,60.5,29.82,South,180,5.0,9.0,86,0.00,,,0.00,WeatherCatV1.10B1784,2013-06-21 16:30:00,
2013-06-21 09:35:00,65.0,60.7,29.82,SSW,192,5.0,8.0,86,0.00,,,0.00,WeatherCatV1.10B1784,2013-06-21 16:35:00,
2013-06-21 09:40:00,65.0,60.7,29.82,SSW,202,7.0,8.0,86,0.00,,,0.00,WeatherCatV1.10B1784,2013-06-21 16:40:00,
2013-06-21 09:45:00,65.0,60.4,29.82,SSW,213,6.0,7.0,85,0.00,,,0.00,WeatherCatV1.10B1784,2013-06-21 16:45:00,
2013-06-21 09:50:00,65.5,61.2,29.82,SW,214,6.0,6.0,86,0.00,,,0.00,WeatherCatV1.10B1784,2013-06-21 16:50:00,
2013-06-21 09:55:00,65.3,60.7,29.82,SW,214,4.0,9.0,85,0.00,,,0.00,WeatherCatV1.10B1784,2013-06-21 16:55:00,
2013-06-21 10:00:00,65.5,60.9,29.81,SW,214,6.0,11.0,85,0.00,,,0.00,WeatherCatV1.10B1784,2013-06-21 17:00:00,
2013-06-21 10:05:00,65.5,60.9,29.81,SW,214,5.0,7.0,85,0.00,,,0.00,WeatherCatV1.10B1784,2013-06-21 17:05:00,
2013-06-21 10:10:00,66.0,61.4,29.81,SW,214,4.0,7.0,85,0.00,,,0.00,WeatherCatV1.10B1784,2013-06-21 17:10:00,
2013-06-21 10:15:00,66.0,61.4,29.81,SW,215,9.0,9.0,85,0.00,,,0.00,WeatherCatV1.10B1784,2013-06-21 17:15:00,
2013-06-21 10:20:00,66.0,61.0,29.81,SW,215,9.0,10.0,84,0.00,,,0.00,WeatherCatV1.10B1784,2013-06-21 17:20:00,
2013-06-21 10:25:00,66.0,61.4,29.81,SW,217,6.0,10.0,85,0.00,,,0.00,WeatherCatV1.10B1784,2013-06-21 17:25:00,
2013-06-21 10:30:00,66.1,61.1,29.81,SW,217,9.0,11.0,84,0.00,,,0.00,WeatherCatV1.10B1784,2013-06-21 17:30:00,
2013-06-21 10:35:00,66.3,61.6,29.81,SW,214,9.0,10.0,85,0.00,,,0.00,WeatherCatV1.10B1784,2013-06-21 17:35:00,
2013-06-21 10:40:00,66.1,61.1,29.81,SW,217,6.0,11.0,84,0.00,,,0.00,WeatherCatV1.10B1784,2013-06-21 17:40:00,
2013-06-21 10:45:00,66.3,61.3,29.82,SW,218,6.0,10.0,84,0.00,,,0.00,WeatherCatV1.10B1784,2013-06-21 17:45:00,
2013-06-21 10:46:00,66.4,61.7,29.82,SW,218,7.0,10.0,85,0.00,,,0.00,WeatherCatV1.10B1784,2013-06-21 17:46:00,
2013-06-21 10:48:00,66.6,61.6,29.82,SW,221,7.0,11.0,84,0.00,,,0.00,WeatherCatV1.10B1784,2013-06-21 17:48:00,
2013-06-21 10:53:00,66.6,61.6,29.82,SW,219,10.0,11.0,84,0.00,,,0.00,WeatherCatV1.10B1784,2013-06-21 17:53:00,
2013-06-21 10:54:00,66.6,61.6,29.82,SW,219,11.0,11.0,84,0.00,,,0.00,WeatherCatV1.10B1784,2013-06-21 17:54:00,
2013-06-21 10:55:00,66.4,61.4,29.82,SW,219,9.0,11.0,84,0.00,,,0.00,WeatherCatV1.10B1784,2013-06-21 17:55:00,
2013-06-21 11:00:00,66.4,61.4,29.82,SW,215,9.0,12.0,84,0.00,,,0.00,WeatherCatV1.10B1784,2013-06-21 18:00:00,
2013-06-21 11:05:00,66.6,61.6,29.82,SW,221,8.0,12.0,84,0.00,,,0.00,WeatherCatV1.10B1784,2013-06-21 18:05:00,
2013-06-21 11:10:00,67.3,62.6,29.82,SW,227,11.0,12.0,85,0.00,,,0.00,WeatherCatV1.10B1784,2013-06-21 18:10:00,
2013-06-21 11:15:00,66.6,61.6,29.82,SW,230,7.0,11.0,84,0.00,,,0.00,WeatherCatV1.10B1784,2013-06-21 18:15:00,
2013-06-21 11:20:00,67.3,62.3,29.82,SW,229,7.0,11.0,84,0.00,,,0.00,WeatherCatV1.10B1784,2013-06-21 18:20:00,
2013-06-21 11:23:00,67.1,62.1,29.82,SW,227,11.0,12.0,84,0.00,,,0.00,WeatherCatV1.10B1784,2013-06-21 18:23:00,
2013-06-21 11:28:00,67.1,62.1,29.82,SW,230,7.0,11.0,84,0.00,,,0.00,WeatherCatV1.10B1784,2013-06-21 18:28:00,
2013-06-21 11:33:00,67.4,62.7,29.82,SW,233,10.0,12.0,85,0.00,,,0.00,WeatherCatV1.10B1784,2013-06-21 18:33:00,
2013-06-21 11:37:00,67.1,62.1,29.82,WSW,238,10.0,12.0,84,0.00,,,0.00,WeatherCatV1.10B1784,2013-06-21 18:37:00,
2013-06-21 11:40:00,67.3,62.3,29.82,WSW,240,7.0,13.0,84,0.00,,,0.00,WeatherCatV1.10B1784,2013-06-21 18:40:00,
2013-06-21 11:45:00,66.8,61.8,29.82,WSW,237,11.0,14.0,84,0.00,,,0.00,WeatherCatV1.10B1784,2013-06-21 18:45:00,
2013-06-21 11:46:00,66.9,61.9,29.82,SW,230,10.0,12.0,84,0.00,,,0.00,WeatherCatV1.10B1784,2013-06-21 18:46:00,
2013-06-21 11:47:00,66.9,61.9,29.82,SW,231,9.0,12.0,84,0.00,,,0.00,WeatherCatV1.10B1784,2013-06-21 18:47:00,
2013-06-21 11:52:00,67.1,62.1,29.82,WSW,238,11.0,13.0,84,0.00,,,0.00,WeatherCatV1.10B1784,2013-06-21 18:52:00,
2013-06-21 11:57:00,67.1,62.1,29.82,SW,232,9.0,13.0,84,0.00,,,0.00,WeatherCatV1.10B1784,2013-06-21 18:57:00,
2013-06-21 12:02:00,67.1,62.1,29.82,SW,232,11.0,12.0,84,0.00,,,0.00,WeatherCatV1.10B1784,2013-06-21 19:02:00,
2013-06-21 12:07:00,67.4,62.4,29.82,SW,227,11.0,14.0,84,0.00,,,0.00,WeatherCatV1.10B1784,2013-06-21 19:07:00,
2013-06-21 12:12:00,67.8,62.8,29.82,WSW,239,7.0,15.0,84,0.00,,,0.00,WeatherCatV1.10B1784,2013-06-21 19:12:00,
2013-06-21 12:17:00,67.8,62.4,29.82,SW,222,10.0,14.0,83,0.00,,,0.00,WeatherCatV1.10B1784,2013-06-21 19:17:00,
2013-06-21 12:22:00,67.9,62.9,29.82,SW,220,11.0,14.0,84,0.00,,,0.00,WeatherCatV1.10B1784,2013-06-21 19:22:00,
2013-06-21 12:27:00,67.6,62.2,29.82,SW,229,10.0,15.0,83,0.00,,,0.00,WeatherCatV1.10B1784,2013-06-21 19:27:00,
2013-06-21 12:32:00,67.4,62.0,29.82,SW,235,15.0,15.0,83,0.00,,,0.00,WeatherCatV1.10B1784,2013-06-21 19:32:00,
2013-06-21 12:37:00,67.3,62.0,29.82,SW,236,14.0,16.0,83,0.00,,,0.00,WeatherCatV1.10B1784,2013-06-21 19:37:00,
2013-06-21 12:42:00,67.8,62.8,29.82,SW,224,12.0,13.0,84,0.00,,,0.00,WeatherCatV1.10B1784,2013-06-21 19:42:00,
2013-06-21 12:47:00,67.9,62.9,29.82,SW,221,13.0,15.0,84,0.00,,,0.00,WeatherCatV1.10B1784,2013-06-21 19:47:00,
2013-06-21 12:52:00,68.1,62.7,29.82,WSW,238,13.0,15.0,83,0.00,,,0.00,WeatherCatV1.10B1784,2013-06-21 19:52:00,
2013-06-21 12:57:00,68.3,63.3,29.82,SW,214,13.0,14.0,84,0.00,,,0.00,WeatherCatV1.10B1784,2013-06-21 19:57:00,
2013-06-21 13:02:00,68.1,62.7,29.82,SW,228,13.0,15.0,83,0.00,,,0.00,WeatherCatV1.10B1784,2013-06-21 20:02:00,
2013-06-21 13:07:00,68.6,63.2,29.82,SW,227,16.0,16.0,83,0.00,,,0.00,WeatherCatV1.10B1784,2013-06-21 20:07:00,
2013-06-21 13:12:00,68.3,62.9,29.82,SW,226,12.0,14.0,83,0.00,,,0.00,WeatherCatV1.10B1784,2013-06-21 20:12:00,
2013-06-21 13:17:00,68.3,62.9,29.82,SW,215,11.0,16.0,83,0.00,,,0.00,WeatherCatV1.10B1784,2013-06-21 20:17:00,
2013-06-21 13:22:00,67.9,62.2,29.82,SW,229,14.0,16.0,82,0.00,,,0.00,WeatherCatV1.10B1784,2013-06-21 20:22:00,
2013-06-21 13:27:00,68.1,62.4,29.82,WSW,237,10.0,14.0,82,0.00,,,0.00,WeatherCatV1.10B1784,2013-06-21 20:27:00,
2013-06-21 13:32:00,68.3,62.6,29.82,SW,230,10.0,15.0,82,0.00,,,0.00,WeatherCatV1.10B1784,2013-06-21 20:32:00,
2013-06-21 13:37:00,68.3,62.6,29.82,SW,224,13.0,15.0,82,0.00,,,0.00,WeatherCatV1.10B1784,2013-06-21 20:37:00,
2013-06-21 13:42:00,68.4,62.3,29.82,SW,229,13.0,16.0,81,0.00,,,0.00,WeatherCatV1.10B1784,2013-06-21 20:42:00,
2013-06-21 13:47:00,68.6,62.9,29.82,SW,233,13.0,14.0,82,0.00,,,0.00,WeatherCatV1.10B1784,2013-06-21 20:47:00,
2013-06-21 13:52:00,68.6,62.5,29.82,SW,223,12.0,16.0,81,0.00,,,0.00,WeatherCatV1.10B1784,2013-06-21 20:52:00,
2013-06-21 13:57:00,68.3,62.2,29.82,SW,227,13.0,17.0,81,0.00,,,0.00,WeatherCatV1.10B1784,2013-06-21 20:57:00,
2013-06-21 14:02:00,68.3,62.2,29.82,SW,218,13.0,15.0,81,0.00,,,0.00,WeatherCatV1.10B1784,2013-06-21 21:02:00,
2013-06-21 14:07:00,68.8,62.7,29.82,SW,227,10.0,15.0,81,0.00,,,0.00,WeatherCatV1.10B1784,2013-06-21 21:07:00,
2013-06-21 14:12:00,68.6,62.2,29.82,SW,221,14.0,15.0,80,0.00,,,0.00,WeatherCatV1.10B1784,2013-06-21 21:12:00,
2013-06-21 14:17:00,68.4,62.0,29.81,SW,227,11.0,15.0,80,0.00,,,0.00,WeatherCatV1.10B1784,2013-06-21 21:17:00,
2013-06-21 14:22:00,68.4,62.3,29.81,SSW,211,11.0,16.0,81,0.00,,,0.00,WeatherCatV1.10B1784,2013-06-21 21:22:00,
2013-06-21 14:27:00,68.3,62.2,29.81,SW,224,15.0,16.0,81,0.00,,,0.00,WeatherCatV1.10B1784,2013-06-21 21:27:00,
2013-06-21 14:32:00,68.4,62.3,29.81,SW,217,12.0,15.0,81,0.00,,,0.00,WeatherCatV1.10B1784,2013-06-21 21:32:00,
2013-06-21 14:37:00,68.1,61.7,29.81,SW,229,9.0,16.0,80,0.00,,,0.00,WeatherCatV1.10B1784,2013-06-21 21:37:00,
2013-06-21 14:42:00,68.3,61.9,29.81,SW,217,12.0,16.0,80,0.00,,,0.00,WeatherCatV1.10B1784,2013-06-21 21:42:00,
2013-06-21 14:47:00,68.1,61.7,29.81,SW,214,15.0,16.0,80,0.00,,,0.00,WeatherCatV1.10B1784,2013-06-21 21:47:00,
2013-06-21 14:52:00,68.1,62.0,29.81,SSW,209,14.0,17.0,81,0.00,,,0.00,WeatherCatV1.10B1784,2013-06-21 21:52:00,
2013-06-21 14:57:00,68.4,62.3,29.81,SW,219,7.0,14.0,81,0.00,,,0.00,WeatherCatV1.10B1784,2013-06-21 21:57:00,
2013-06-21 15:02:00,68.3,61.9,29.81,SSW,211,13.0,14.0,80,0.00,,,0.00,WeatherCatV1.10B1784,2013-06-21 22:02:00,
2013-06-21 15:07:00,68.4,62.0,29.81,SW,225,9.0,16.0,80,0.00,,,0.00,WeatherCatV1.10B1784,2013-06-21 22:07:00,
2013-06-21 15:12:00,68.3,61.9,29.81,SW,223,11.0,16.0,80,0.00,,,0.00,WeatherCatV1.10B1784,2013-06-21 22:12:00,
2013-06-21 15:17:00,68.4,62.0,29.81,SW,215,14.0,15.0,80,0.00,,,0.00,WeatherCatV1.10B1784,2013-06-21 22:17:00,
2013-06-21 15:22:00,67.9,61.1,29.81,SW,217,14.0,15.0,79,0.00,,,0.00,WeatherCatV1.10B1784,2013-06-21 22:22:00,
2013-06-21 15:27:00,68.4,62.3,29.81,SSW,213,11.0,14.0,81,0.00,,,0.00,WeatherCatV1.10B1784,2013-06-21 22:27:00,
2013-06-21 15:32:00,68.3,61.9,29.81,SW,221,9.0,12.0,80,0.00,,,0.00,WeatherCatV1.10B1784,2013-06-21 22:32:00,
2013-06-21 15:37:00,68.8,62.4,29.81,SW,222,5.0,11.0,80,0.00,,,0.00,WeatherCatV1.10B1784,2013-06-21 22:37:00,
2013-06-21 15:42:00,68.9,62.1,29.81,SSW,210,11.0,13.0,79,0.00,,,0.00,WeatherCatV1.10B1784,2013-06-21 22:42:00,
2013-06-21 15:47:00,69.1,62.3,29.80,SW,217,12.0,13.0,79,0.00,,,0.00,WeatherCatV1.10B1784,2013-06-21 22:47:00,
2013-06-21 15:52:00,68.8,62.0,29.80,SW,218,10.0,14.0,79,0.00,,,0.00,WeatherCatV1.10B1784,2013-06-21 22:52:00,
2013-06-21 15:57:00,68.3,61.2,29.80,SSW,213,11.0,13.0,78,0.00,,,0.00,WeatherCatV1.10B1784,2013-06-21 22:57:00,
2013-06-21 16:02:00,68.3,61.9,29.80,SW,217,8.0,13.0,80,0.00,,,0.00,WeatherCatV1.10B1784,2013-06-21 23:02:00,
2013-06-21 16:07:00,69.1,62.7,29.80,SW,220,11.0,14.0,80,0.00,,,0.00,WeatherCatV1.10B1784,2013-06-21 23:07:00,
2013-06-21 16:12:00,68.6,62.2,29.80,SW,216,12.0,13.0,80,0.00,,,0.00,WeatherCatV1.10B1784,2013-06-21 23:12:00,
2013-06-21 16:17:00,68.9,62.5,29.80,SW,226,8.0,12.0,80,0.00,,,0.00,WeatherCatV1.10B1784,2013-06-21 23:17:00,
2013-06-21 16:22:00,69.4,62.6,29.80,SW,227,10.0,12.0,79,0.00,,,0.00,WeatherCatV1.10B1784,2013-06-21 23:22:00,
2013-06-21 16:27:00,68.8,61.7,29.80,SW,229,11.0,13.0,78,0.00,,,0.00,WeatherCatV1.10B1784,2013-06-21 23:27:00,
2013-06-21 16:32:00,68.6,61.8,29.80,SW,222,9.0,13.0,79,0.00,,,0.00,WeatherCatV1.10B1784,2013-06-21 23:32:00,
2013-06-21 16:37:00,68.6,61.8,29.80,SW,220,11.0,11.0,79,0.00,,,0.00,WeatherCatV1.10B1784,2013-06-21 23:37:00,
2013-06-21 16:42:00,68.8,62.0,29.80,SW,227,11.0,13.0,79,0.00,,,0.00,WeatherCatV1.10B1784,2013-06-21 23:42:00,
2013-06-21 16:47:00,68.4,61.6,29.79,SW,221,6.0,11.0,79,0.00,,,0.00,WeatherCatV1.10B1784,2013-06-21 23:47:00,
2013-06-21 16:52:00,68.6,61.5,29.79,SW,225,7.0,12.0,78,0.00,,,0.00,WeatherCatV1.10B1784,2013-06-21 23:52:00,
2013-06-21 16:57:00,68.4,61.3,29.79,SW,228,7.0,11.0,78,0.00,,,0.00,WeatherCatV1.10B1784,2013-06-21 23:57:00,
2013-06-21 17:02:00,68.6,62.2,29.79,SW,227,9.0,12.0,80,0.00,,,0.00,WeatherCatV1.10B1784,2013-06-22 00:02:00,
2013-06-21 17:07:00,68.8,62.4,29.79,SW,226,12.0,12.0,80,0.00,,,0.00,WeatherCatV1.10B1784,2013-06-22 00:07:00,
2013-06-21 17:12:00,68.6,61.5,29.79,SW,216,9.0,12.0,78,0.00,,,0.00,WeatherCatV1.10B1784,2013-06-22 00:12:00,
2013-06-21 17:17:00,68.6,61.8,29.79,SW,228,10.0,11.0,79,0.00,,,0.00,WeatherCatV1.10B1784,2013-06-22 00:17:00,
2013-06-21 17:22:00,68.4,61.6,29.79,SW,227,8.0,10.0,79,0.00,,,0.00,WeatherCatV1.10B1784,2013-06-22 00:22:00,
2013-06-21 17:27:00,68.1,61.3,29.79,SW,221,6.0,10.0,79,0.00,,,0.00,WeatherCatV1.10B1784,2013-06-22 00:27:00,
2013-06-21 17:32:00,67.8,61.0,29.78,SW,227,8.0,9.0,79,0.00,,,0.00,WeatherCatV1.10B1784,2013-06-22 00:32:00,
2013-06-21 17:37:00,67.4,61.4,29.78,SW,228,4.0,10.0,81,0.00,,,0.00,WeatherCatV1.10B1784,2013-06-22 00:37:00,
2013-06-21 17:42:00,68.1,61.7,29.78,SW,225,7.0,7.0,80,0.00,,,0.00,WeatherCatV1.10B1784,2013-06-22 00:42:00,
2013-06-21 17:47:00,68.1,61.7,29.77,SW,229,6.0,10.0,80,0.00,,,0.00,WeatherCatV1.10B1784,2013-06-22 00:47:00,
2013-06-21 17:52:00,68.3,61.9,29.77,SW,229,10.0,11.0,80,0.00,,,0.00,WeatherCatV1.10B1784,2013-06-22 00:52:00,
2013-06-21 17:57:00,68.4,62.3,29.77,SW,228,7.0,7.0,81,0.00,,,0.00,WeatherCatV1.10B1784,2013-06-22 00:57:00,
2013-06-21 18:02:00,67.8,61.4,29.77,SW,222,9.0,9.0,80,0.00,,,0.00,WeatherCatV1.10B1784,2013-06-22 01:02:00,
2013-06-21 18:07:00,67.6,61.2,29.77,SW,220,6.0,10.0,80,0.00,,,0.00,WeatherCatV1.10B1784,2013-06-22 01:07:00,
2013-06-21 18:12:00,67.8,61.4,29.77,SW,225,9.0,10.0,80,0.00,,,0.00,WeatherCatV1.10B1784,2013-06-22 01:12:00,
2013-06-21 18:17:00,67.9,61.8,29.77,SW,225,6.0,8.0,81,0.00,,,0.00,WeatherCatV1.10B1784,2013-06-22 01:17:00,
2013-06-21 18:22:00,67.6,61.2,29.77,SW,216,9.0,10.0,80,0.00,,,0.00,WeatherCatV1.10B1784,2013-06-22 01:22:00,
2013-06-21 18:27:00,67.4,61.4,29.77,SW,222,5.0,10.0,81,0.00,,,0.00,WeatherCatV1.10B1784,2013-06-22 01:27:00,
2013-06-21 18:32:00,67.6,61.6,29.77,SW,222,6.0,7.0,81,0.00,,,0.00,WeatherCatV1.10B1784,2013-06-22 01:32:00,
2013-06-21 18:37:00,67.4,61.4,29.77,SW,221,6.0,7.0,81,0.00,,,0.00,WeatherCatV1.10B1784,2013-06-22 01:37:00,
2013-06-21 18:42:00,67.6,61.6,29.77,SW,221,5.0,6.0,81,0.00,,,0.00,WeatherCatV1.10B1784,2013-06-22 01:42:00,
2013-06-21 18:47:00,67.6,61.6,29.77,SW,221,6.0,6.0,81,0.00,,,0.00,WeatherCatV1.10B1784,2013-06-22 01:47:00,
2013-06-21 18:52:00,67.6,61.6,29.77,SW,221,6.0,6.0,81,0.00,,,0.00,WeatherCatV1.10B1784,2013-06-22 01:52:00,
2013-06-21 18:57:00,67.3,61.3,29.77,SW,222,4.0,6.0,81,0.00,,,0.00,WeatherCatV1.10B1784,2013-06-22 01:57:00,
2013-06-21 19:02:00,67.1,61.1,29.77,SW,222,5.0,7.0,81,0.00,,,0.00,WeatherCatV1.10B1784,2013-06-22 02:02:00,
2013-06-21 19:07:00,67.3,61.6,29.77,SW,222,5.0,6.0,82,0.00,,,0.00,WeatherCatV1.10B1784,2013-06-22 02:07:00,
2013-06-21 19:12:00,67.3,61.3,29.77,SW,222,5.0,6.0,81,0.00,,,0.00,WeatherCatV1.10B1784,2013-06-22 02:12:00,
2013-06-21 19:17:00,67.1,61.4,29.77,SW,222,3.0,5.0,82,0.00,,,0.00,WeatherCatV1.10B1784,2013-06-22 02:17:00,
2013-06-21 19:22:00,67.1,61.4,29.77,SW,222,4.0,5.0,82,0.00,,,0.00,WeatherCatV1.10B1784,2013-06-22 02:22:00,
2013-06-21 19:27:00,66.8,61.1,29.77,SW,223,5.0,6.0,82,0.00,,,0.00,WeatherCatV1.10B1784,2013-06-22 02:27:00,
2013-06-21 19:32:00,66.6,61.3,29.77,SW,223,4.0,5.0,83,0.00,,,0.00,WeatherCatV1.10B1784,2013-06-22 02:32:00,
2013-06-21 19:37:00,66.4,61.1,29.77,SW,223,3.0,6.0,83,0.00,,,0.00,WeatherCatV1.10B1784,2013-06-22 02:37:00,
2013-06-21 19:42:00,66.1,60.8,29.77,SW,223,4.0,6.0,83,0.00,,,0.00,WeatherCatV1.10B1784,2013-06-22 02:42:00,
2013-06-21 19:47:00,65.6,60.6,29.77,SW,223,2.0,5.0,84,0.00,,,0.00,WeatherCatV1.10B1784,2013-06-22 02:47:00,
2013-06-21 19:52:00,65.6,60.6,29.77,SW,223,5.0,5.0,84,0.00,,,0.00,WeatherCatV1.10B1784,2013-06-22 02:52:00,
2013-06-21 19:57:00,65.6,60.6,29.77,SW,223,4.0,5.0,84,0.00,,,0.00,WeatherCatV1.10B1784,2013-06-22 02:57:00,
2013-06-21 20:02:00,65.5,60.9,29.77,SW,223,2.0,6.0,85,0.00,,,0.00,WeatherCatV1.10B1784,2013-06-22 03:02:00,
2013-06-21 20:07:00,65.3,60.7,29.77,SW,223,3.0,4.0,85,0.00,,,0.00,WeatherCatV1.10B1784,2013-06-22 03:07:00,
2013-06-21 20:12:00,65.3,60.7,29.77,SW,223,5.0,5.0,85,0.00,,,0.00,WeatherCatV1.10B1784,2013-06-22 03:12:00,
2013-06-21 20:17:00,65.3,60.7,29.77,SW,223,2.0,5.0,85,0.00,,,0.00,WeatherCatV1.10B1784,2013-06-22 03:17:00,
2013-06-21 20:22:00,65.2,60.6,29.77,SW,223,2.0,4.0,85,0.00,,,0.00,WeatherCatV1.10B1784,2013-06-22 03:22:00,
2013-06-21 20:27:00,65.0,60.7,29.77,SW,223,3.0,4.0,86,0.00,,,0.00,WeatherCatV1.10B1784,2013-06-22 03:27:00,
2013-06-21 20:32:00,65.0,60.7,29.77,SW,223,4.0,4.0,86,0.00,,,0.00,WeatherCatV1.10B1784,2013-06-22 03:32:00,
2013-06-21 20:37:00,65.2,60.9,29.77,SW,223,4.0,5.0,86,0.00,,,0.00,WeatherCatV1.10B1784,2013-06-22 03:37:00,
2013-06-21 20:42:00,65.0,60.7,29.77,SW,223,0.0,2.0,86,0.00,,,0.00,WeatherCatV1.10B1784,2013-06-22 03:42:00,
2013-06-21 20:47:00,64.8,60.5,29.77,SW,223,0.0,1.0,86,0.00,,,0.00,WeatherCatV1.10B1784,2013-06-22 03:47:00,
2013-06-21 20:52:00,65.0,61.0,29.77,SW,223,2.0,4.0,87,0.00,,,0.00,WeatherCatV1.10B1784,2013-06-22 03:52:00,
2013-06-21 20:57:00,65.0,61.0,29.77,SW,223,1.0,2.0,87,0.00,,,0.00,WeatherCatV1.10B1784,2013-06-22 03:57:00,
2013-06-21 21:01:00,65.0,61.0,29.78,SW,223,0.0,4.0,87,0.00,,,0.00,WeatherCatV1.10B1784,2013-06-22 04:01:00,
2013-06-21 21:06:00,64.8,60.8,29.78,SW,223,1.0,3.0,87,0.00,,,0.00,WeatherCatV1.10B1784,2013-06-22 04:06:00,
2013-06-21 21:11:00,64.8,60.8,29.78,SW,223,1.0,2.0,87,0.00,,,0.00,WeatherCatV1.10B1784,2013-06-22 04:11:00,
2013-06-21 21:16:00,64.8,60.8,29.78,SW,223,3.0,5.0,87,0.00,,,0.00,WeatherCatV1.10B1784,2013-06-22 04:16:00,
2013-06-21 21:21:00,64.8,60.8,29.78,SW,223,2.0,3.0,87,0.00,,,0.00,WeatherCatV1.10B1784,2013-06-22 04:21:00,
2013-06-21 21:26:00,64.8,61.2,29.78,SW,223,0.0,2.0,88,0.00,,,0.00,WeatherCatV1.10B1784,2013-06-22 04:26:00,
2013-06-21 21:31:00,64.8,61.2,29.78,SW,223,1.0,2.0,88,0.00,,,0.00,WeatherCatV1.10B1784,2013-06-22 04:31:00,
2013-06-21 21:36:00,64.7,61.1,29.78,SW,223,0.0,4.0,88,0.00,,,0.00,WeatherCatV1.10B1784,2013-06-22 04:36:00,
2013-06-21 21:41:00,64.7,61.1,29.78,SW,223,0.0,1.0,88,0.00,,,0.00,WeatherCatV1.10B1784,2013-06-22 04:41:00,
2013-06-21 21:46:00,64.5,60.9,29.78,SW,223,0.0,4.0,88,0.00,,,0.00,WeatherCatV1.10B1784,2013-06-22 04:46:00,
2013-06-21 21:51:00,64.5,60.9,29.78,SW,223,0.0,4.0,88,0.00,,,0.00,WeatherCatV1.10B1784,2013-06-22 04:51:00,
2013-06-21 21:56:00,64.3,60.7,29.78,SW,222,2.0,5.0,88,0.00,,,0.00,WeatherCatV1.10B1784,2013-06-22 04:56:00,
2013-06-21 22:01:00,64.3,60.7,29.78,SW,223,3.0,4.0,88,0.00,,,0.00,WeatherCatV1.10B1784,2013-06-22 05:01:00,
2013-06-21 22:06:00,64.3,60.7,29.78,SW,223,3.0,5.0,88,0.00,,,0.00,WeatherCatV1.10B1784,2013-06-22 05:06:00,
2013-06-21 22:11:00,64.3,60.7,29.78,SW,223,3.0,4.0,88,0.00,,,0.00,WeatherCatV1.10B1784,2013-06-22 05:11:00,
2013-06-21 22:16:00,64.3,60.7,29.79,SW,223,4.0,4.0,88,0.00,,,0.00,WeatherCatV1.10B1784,2013-06-22 05:16:00,
2013-06-21 22:21:00,64.3,60.7,29.79,SW,223,0.0,4.0,88,0.00,,,0.00,WeatherCatV1.10B1784,2013-06-22 05:21:00,
2013-06-21 22:26:00,64.3,60.7,29.79,SW,223,3.0,4.0,88,0.00,,,0.00,WeatherCatV1.10B1784,2013-06-22 05:26:00,
2013-06-21 22:30:00,64.3,60.7,29.79,SW,223,1.0,5.0,88,0.00,,,0.00,WeatherCatV1.10B1784,2013-06-22 05:30:00,
2013-06-21 22:35:00,64.2,60.6,29.79,SW,223,4.0,5.0,88,0.00,,,0.00,WeatherCatV1.10B1784,2013-06-22 05:35:00,
2013-06-21 22:40:00,64.2,60.6,29.79,SW,223,0.0,3.0,88,0.00,,,0.00,WeatherCatV1.10B1784,2013-06-22 05:40:00,
2013-06-21 22:45:00,64.2,60.6,29.79,SW,223,2.0,3.0,88,0.00,,,0.00,WeatherCatV1.10B1784,2013-06-22 05:45:00,
2013-06-21 22:50:00,64.2,60.6,29.79,SW,223,0.0,1.0,88,0.00,,,0.00,WeatherCatV1.10B1784,2013-06-22 05:50:00,
2013-06-21 22:55:00,64.0,60.4,29.79,SW,223,1.0,2.0,88,0.00,,,0.00,WeatherCatV1.10B1784,2013-06-22 05:55:00,
2013-06-21 23:00:00,63.9,60.3,29.79,SW,223,0.0,1.0,88,0.00,,,0.00,WeatherCatV1.10B1784,2013-06-22 06:00:00,
2013-06-21 23:05:00,63.7,60.1,29.79,SW,223,0.0,1.0,88,0.00,,,0.00,WeatherCatV1.10B1784,2013-06-22 06:05:00,
2013-06-21 23:10:00,63.5,59.9,29.79,SW,223,0.0,3.0,88,0.00,,,0.00,WeatherCatV1.10B1784,2013-06-22 06:10:00,
2013-06-21 23:15:00,63.5,59.9,29.79,SW,223,0.0,3.0,88,0.00,,,0.00,WeatherCatV1.10B1784,2013-06-22 06:15:00,
2013-06-21 23:20:00,63.4,59.8,29.79,SW,223,0.0,1.0,88,0.00,,,0.00,WeatherCatV1.10B1784,2013-06-22 06:20:00,
2013-06-21 23:25:00,63.4,59.8,29.79,SW,223,0.0,2.0,88,0.00,,,0.00,WeatherCatV1.10B1784,2013-06-22 06:25:00,
2013-06-21 23:30:00,63.4,59.8,29.80,SW,223,0.0,1.0,88,0.00,,,0.00,WeatherCatV1.10B1784,2013-06-22 06:30:00,
2013-06-21 23:35:00,63.2,59.6,29.80,SW,223,2.0,3.0,88,0.00,,,0.00,WeatherCatV1.10B1784,2013-06-22 06:35:00,
2013-06-21 23:40:00,63.2,59.6,29.80,SW,223,0.0,1.0,88,0.00,,,0.00,WeatherCatV1.10B1784,2013-06-22 06:40:00,
2013-06-21 23:45:00,63.2,59.6,29.79,SW,223,1.0,4.0,88,0.00,,,0.00,WeatherCatV1.10B1784,2013-06-22 06:45:00,
2013-06-21 23:50:00,63.2,59.6,29.79,SW,223,0.0,2.0,88,0.00,,,0.00,WeatherCatV1.10B1784,2013-06-22 06:50:00,
2013-06-21 23:55:00,63.1,59.5,29.79,SW,223,1.0,2.0,88,0.00,,,0.00,WeatherCatV1.10B1784,2013-06-22 06:55:00,